STARLINK-5732, 55572

Orbit data source: Space-Track

STARLINK-5732, 55572 is a payload satellite owned by SpaceX/Seattle (US) in LEO that was launched on Sun, 12 Feb 2023 UTC via an FALCON 9 launch vehicle from the Air Force Eastern Test Range (AFETR). Payload-class satellites include a variety of spacecraft equipped with specific instruments for various scientific and technological missions. These include communications satellites like Starlink; space stations such as the ISS; scientific satellites like the Hubble; Earth observation satellites from companies like Planet Labs, Umbra, and HawkEye 360; GPS; miniature CubeSats for education and research; and military/defense satellites.

Loading next visibility...
Identifier
55572, 2023-020D
Orbit
LEO
Country
Flag of USUS
Related business
Manufacturer
SpaceX/Seattle
Mission
Operational Commercial Communications
Bus & Motor
STARLINK, Unknown motor
Mass
305 kg wet, ~290 kg dry
Launch date (UTC)
2023-02-12 (3 years ago)
Launch vehicle
FALCON 9
Launch site
Air Force Eastern Test Range (AFETR)
Object type
Payload
Rocket body
Debris
Shape & HBR
Box + 1 Pan, 10.1 m
Radar Cross Section
13.562 m², Large (>1 m²)

Expand to show TLE details & history
Last TLE update: 3 days ago

TLE from 3 days ago
0 STARLINK-5732
1 55572U 23020D   26171.02154404  .00000273  00000-0  19439-4 0  9990
2 55572  43.0015 150.6531 0001210 261.3741  98.6973 15.27578087184520
Epoch: 2026-06-20T00:31Z
TLE epoch observation values (Epoch: 2026-06-20T00:31:01.405Z)
Latitude
-0.00004°
Longitude
-125.34495°
Altitude
482.956 km
Speed
7.626 km/s
True Right ascension
10h 02m 36s
True Declination
0° 00' 00"
Sunlit
Object was in daylight at epoch
Visualization orbit readout
Latitude
Unknown
Longitude
Unknown
Altitude
Unknown
Speed
Unknown
Apparent Right ascension
Unknown
Apparent Declination
Unknown
Sunlit
N/A
Visualization observer readout
Local Sidereal Time
00:56:30
Azimuth
Unknown
Elevation
Unknown
Doppler factor
Unknown
Orbital elements
Apogee altitude
485.83 km
Perigee altitude
484.169 km
Semi-major axis
6,863.137 km
Eccentricity
0.00012
Inclination
43.0015°
RAAN
150.6531°
Arg. of periapsis
261.3741°
True anomaly
98.71101°
Mean anomaly
98.6973°
Eccentric anomaly
98.70415°
Mean motion
3.81733 °/min
Orbital period
94.31 mins
BSTAR
0.000019439
Loading maneuver chart data...
Computing Atmospheric mass density...
Loading historical data...
Loading historical data...
Loading historical data...
Loading historical data...
Loading historical data...
Loading historical data...
Loading historical data...

Documentation

Showing up to 5 results
|